| time (UTC) | temp C | wind direction | speed KPH | gust KPH | rain 1hr cm | rain 24hr cm | rain mn cm | humidity % | barometer mb |
| 20260502232006 | 8 | 78 | 0.0 | 4.8 | 0.00 | 0.00 | 0.00 | 65 | 1022.8 |
| 20260502231505 | 8 | 71 | 3.2 | 4.8 | 0.00 | 0.00 | 0.00 | 66 | 1022.8 |
| 20260502231005 | 8 | 58 | 3.2 | 4.8 | 0.00 | 0.00 | 0.00 | 65 | 1023.8 |
| 20260502230006 | 8 | 90 | 0.0 | 3.2 | 0.00 | 0.00 | 0.00 | 64 | 1023.8 |
| 20260502225505 | 8 | 90 | 0.0 | 3.2 | 0.00 | 0.00 | 0.00 | 64 | 1022.8 |
| 20260502225006 | 9 | 86 | 0.0 | 3.2 | 0.00 | 0.00 | 0.00 | 64 | 1022.8 |
| 20260502224506 | 9 | 76 | 1.6 | 3.2 | 0.00 | 0.00 | 0.00 | 63 | 1022.8 |
| 20260502224006 | 9 | 0 | 0.0 | 0.0 | 0.00 | 0.00 | 0.00 | 64 | 1022.8 |
| 20260502223505 | 9 | 42 | 0.0 | 3.2 | 0.00 | 0.00 | 0.00 | 65 | 1022.8 |
| 20260502223006 | 9 | 40 | 0.0 | 3.2 | 0.00 | 0.00 | 0.00 | 63 | 1022.8 |
| 20260502222505 | 9 | 54 | 1.6 | 3.2 | 0.00 | 0.00 | 0.00 | 62 | 1022.8 |
| 20260502222006 | 9 | 112 | 0.0 | 3.2 | 0.00 | 0.00 | 0.00 | 62 | 1022.8 |
| 20260502221506 | 9 | 146 | 0.0 | 3.2 | 0.00 | 0.00 | 0.00 | 61 | 1022.8 |
| 20260502215506 | 10 | 68 | 0.0 | 3.2 | 0.00 | 0.00 | 0.00 | 60 | 1023.8 |
| 20260502215005 | 10 | 71 | 3.2 | 3.2 | 0.00 | 0.00 | 0.00 | 61 | 1023.8 |
| 20260502214505 | 10 | 203 | 0.0 | 3.2 | 0.00 | 0.00 | 0.00 | 60 | 1023.8 |
| 20260502213505 | 10 | 68 | 0.0 | 3.2 | 0.00 | 0.00 | 0.00 | 61 | 1022.8 |
| 20260502212005 | 10 | 93 | 0.0 | 3.2 | 0.00 | 0.00 | 0.00 | 58 | 1022.8 |
| 20260502211506 | 10 | 48 | 1.6 | 3.2 | 0.00 | 0.00 | 0.00 | 59 | 1022.8 |
| 20260502211005 | 10 | 36 | 0.0 | 3.2 | 0.00 | 0.00 | 0.00 | 57 | 1022.8 |
| 20260502210505 | 10 | 117 | 0.0 | 3.2 | 0.00 | 0.00 | 0.00 | 57 | 1022.8 |
| 20260502210006 | 11 | 173 | 1.6 | 3.2 | 0.00 | 0.00 | 0.00 | 58 | 1022.8 |
| 20260502205505 | 11 | 297 | 1.6 | 3.2 | 0.00 | 0.00 | 0.00 | 56 | 1023.8 |
| 20260502205006 | 11 | 62 | 1.6 | 3.2 | 0.00 | 0.00 | 0.00 | 55 | 1023.8 |
| 20260502204505 | 11 | 67 | 0.0 | 3.2 | 0.00 | 0.00 | 0.00 | 55 | 1023.8 |
| 20260502203505 | 11 | 0 | 0.0 | 0.0 | 0.00 | 0.00 | 0.00 | 54 | 1023.8 |
| 20260502203006 | 11 | 0 | 0.0 | 0.0 | 0.00 | 0.00 | 0.00 | 54 | 1023.8 |
| 20260502202505 | 11 | 45 | 0.0 | 1.6 | 0.00 | 0.00 | 0.00 | 53 | 1023.8 |
| 20260502202005 | 11 | 45 | 0.0 | 1.6 | 0.00 | 0.00 | 0.00 | 53 | 1023.8 |
| 20260502201505 | 12 | 0 | 0.0 | 0.0 | 0.00 | 0.00 | 0.00 | 52 | 1023.8 |
| 20260502201005 | 12 | 0 | 0.0 | 0.0 | 0.00 | 0.00 | 0.00 | 52 | 1023.8 |
| 20260502200506 | 12 | 0 | 0.0 | 0.0 | 0.00 | 0.00 | 0.00 | 50 | 1023.8 |
| 20260502200005 | 12 | 1 | 0.0 | 3.2 | 0.00 | 0.00 | 0.00 | 50 | 1023.8 |
| 20260502195506 | 12 | 1 | 0.0 | 3.2 | 0.00 | 0.00 | 0.00 | 50 | 1022.8 |
| 20260502195005 | 12 | 0 | 0.0 | 0.0 | 0.00 | 0.00 | 0.00 | 50 | 1022.8 |
| 20260502194506 | 12 | 158 | 0.0 | 3.2 | 0.00 | 0.00 | 0.00 | 47 | 1022.8 |
| 20260502194005 | 13 | 159 | 0.0 | 3.2 | 0.00 | 0.00 | 0.00 | 48 | 1022.8 |
| 20260502193506 | 13 | 168 | 0.0 | 3.2 | 0.00 | 0.00 | 0.00 | 46 | 1022.8 |
| 20260502193005 | 13 | 181 | 0.0 | 3.2 | 0.00 | 0.00 | 0.00 | 44 | 1022.8 |
| 20260502192506 | 13 | 181 | 0.0 | 3.2 | 0.00 | 0.00 | 0.00 | 44 | 1022.8 |
| 20260502192005 | 13 | 68 | 0.0 | 1.6 | 0.00 | 0.00 | 0.00 | 44 | 1022.8 |
| 20260502191506 | 14 | 68 | 0.0 | 3.2 | 0.00 | 0.00 | 0.00 | 41 | 1022.8 |
| 20260502190505 | 14 | 54 | 0.0 | 3.2 | 0.00 | 0.00 | 0.00 | 40 | 1021.8 |
| 20260502190006 | 15 | 49 | 1.6 | 3.2 | 0.00 | 0.00 | 0.00 | 39 | 1021.8 |
| 20260502185505 | 15 | 0 | 0.0 | 0.0 | 0.00 | 0.00 | 0.00 | 38 | 1021.8 |
| 20260502185006 | 15 | 308 | 0.0 | 3.2 | 0.00 | 0.00 | 0.00 | 37 | 1021.8 |
| 20260502184505 | 15 | 308 | 0.0 | 3.2 | 0.00 | 0.00 | 0.00 | 36 | 1021.8 |
| 20260502184006 | 16 | 299 | 0.0 | 3.2 | 0.00 | 0.00 | 0.00 | 35 | 1021.8 |
| 20260502183506 | 16 | 104 | 0.0 | 3.2 | 0.00 | 0.00 | 0.00 | 34 | 1021.8 |
| 20260502183006 | 16 | 111 | 0.0 | 3.2 | 0.00 | 0.00 | 0.00 | 33 | 1021.8 |
| 20260502182505 | 16 | 0 | 0.0 | 0.0 | 0.00 | 0.00 | 0.00 | 33 | 1021.8 |
| 20260502182005 | 17 | 0 | 0.0 | 0.0 | 0.00 | 0.00 | 0.00 | 32 | 1021.8 |
| 20260502181505 | 17 | 253 | 0.0 | 3.2 | 0.00 | 0.00 | 0.00 | 32 | 1021.8 |
| 20260502181005 | 17 | 266 | 0.0 | 4.8 | 0.00 | 0.00 | 0.00 | 31 | 1021.8 |
| 20260502180505 | 18 | 245 | 3.2 | 4.8 | 0.00 | 0.00 | 0.00 | 30 | 1021.8 |
| 20260502170506 | 21 | 251 | 3.2 | 11.3 | 0.00 | 0.00 | 0.00 | 23 | 1020.8 |
| 20260502164005 | 22 | 209 | 4.8 | 19.3 | 0.00 | 0.00 | 0.00 | 21 | 1021.8 |
| 20260502163005 | 22 | 229 | 9.7 | 14.5 | 0.00 | 0.00 | 0.00 | 22 | 1021.8 |
| 20260502162006 | 22 | 217 | 6.4 | 9.7 | 0.00 | 0.00 | 0.00 | 22 | 1021.8 |
| 20260502161505 | 22 | 273 | 3.2 | 17.7 | 0.00 | 0.00 | 0.00 | 23 | 1021.8 |
| 20260502161005 | 22 | 279 | 4.8 | 17.7 | 0.00 | 0.00 | 0.00 | 22 | 1021.8 |
| 20260502160505 | 23 | 242 | 3.2 | 14.5 | 0.00 | 0.00 | 0.00 | 22 | 1021.8 |
| 20260502151505 | 23 | 228 | 6.4 | 14.5 | 0.00 | 0.00 | 0.00 | 21 | 1021.8 |
| 20260502151005 | 23 | 212 | 9.7 | 14.5 | 0.00 | 0.00 | 0.00 | 21 | 1022.8 |
| 20260502150506 | 23 | 211 | 9.7 | 19.3 | 0.00 | 0.00 | 0.00 | 21 | 1022.8 |
| 20260502130505 | 24 | 240 | 11.3 | 20.9 | 0.00 | 0.00 | 0.00 | 19 | 1023.8 |
| 20260502123505 | 25 | 247 | 9.7 | 17.7 | 0.00 | 0.00 | 0.00 | 19 | 1023.8 |
| 20260502123006 | 24 | 241 | 4.8 | 16.1 | 0.00 | 0.00 | 0.00 | 20 | 1023.8 |
| 20260502122505 | 24 | 238 | 8.0 | 16.1 | 0.00 | 0.00 | 0.00 | 20 | 1023.8 |
| 20260502122006 | 24 | 232 | 8.0 | 20.9 | 0.00 | 0.00 | 0.00 | 19 | 1023.8 |
| 20260502120505 | 24 | 233 | 14.5 | 22.5 | 0.00 | 0.00 | 0.00 | 19 | 1023.8 |
| 20260502115505 | 25 | 224 | 11.3 | 17.7 | 0.00 | 0.00 | 0.00 | 19 | 1023.8 |
| 20260502115005 | 25 | 240 | 9.7 | 14.5 | 0.00 | 0.00 | 0.00 | 20 | 1023.8 |
| 20260502114005 | 24 | 258 | 9.7 | 20.9 | 0.00 | 0.00 | 0.00 | 20 | 1023.8 |
| 20260502113005 | 24 | 248 | 8.0 | 19.3 | 0.00 | 0.00 | 0.00 | 20 | 1023.8 |
| 20260502112505 | 24 | 259 | 6.4 | 17.7 | 0.00 | 0.00 | 0.00 | 20 | 1024.8 |
| 20260502112005 | 24 | 253 | 12.9 | 17.7 | 0.00 | 0.00 | 0.00 | 21 | 1024.8 |
| 20260502111505 | 24 | 233 | 6.4 | 17.7 | 0.00 | 0.00 | 0.00 | 20 | 1024.8 |
| 20260502111006 | 24 | 240 | 6.4 | 17.7 | 0.00 | 0.00 | 0.00 | 22 | 1024.8 |
| 20260502110505 | 24 | 248 | 8.0 | 19.3 | 0.00 | 0.00 | 0.00 | 22 | 1024.8 |
| 20260502110006 | 24 | 257 | 12.9 | 19.3 | 0.00 | 0.00 | 0.00 | 21 | 1024.8 |
| 20260502105505 | 24 | 251 | 8.0 | 17.7 | 0.00 | 0.00 | 0.00 | 22 | 1024.8 |
| 20260502105006 | 24 | 233 | 6.4 | 14.5 | 0.00 | 0.00 | 0.00 | 24 | 1024.8 |
| 20260502104005 | 24 | 236 | 8.0 | 16.1 | 0.00 | 0.00 | 0.00 | 23 | 1024.8 |
| 20260502103505 | 23 | 231 | 6.4 | 17.7 | 0.00 | 0.00 | 0.00 | 24 | 1024.8 |
| 20260502102505 | 23 | 247 | 6.4 | 14.5 | 0.00 | 0.00 | 0.00 | 25 | 1024.8 |
| 20260502102005 | 23 | 265 | 4.8 | 16.1 | 0.00 | 0.00 | 0.00 | 25 | 1024.8 |
| 20260502101504 | 23 | 243 | 8.0 | 16.1 | 0.00 | 0.00 | 0.00 | 26 | 1024.8 |
| 20260502101005 | 23 | 250 | 8.0 | 11.3 | 0.00 | 0.00 | 0.00 | 24 | 1024.8 |
| 20260502100505 | 23 | 255 | 3.2 | 12.9 | 0.00 | 0.00 | 0.00 | 26 | 1024.8 |
| 20260502091505 | 21 | 153 | 3.2 | 6.4 | 0.00 | 0.00 | 0.00 | 34 | 1025.8 |
| 20260502090506 | 20 | 27 | 3.2 | 4.8 | 0.00 | 0.00 | 0.00 | 37 | 1025.8 |
| 20260502071505 | 13 | 19 | 6.4 | 8.0 | 0.00 | 0.00 | 0.00 | 55 | 1027.8 |
| 20260502071005 | 13 | 74 | 3.2 | 6.4 | 0.00 | 0.00 | 0.00 | 56 | 1027.8 |
| 20260502070504 | 13 | 72 | 1.6 | 6.4 | 0.00 | 0.00 | 0.00 | 57 | 1027.8 |
| 20260502070005 | 12 | 147 | 3.2 | 6.4 | 0.00 | 0.00 | 0.00 | 58 | 1027.8 |
| 20260502065504 | 12 | 185 | 3.2 | 6.4 | 0.00 | 0.00 | 0.00 | 60 | 1027.8 |
| 20260502064505 | 11 | 251 | 3.2 | 4.8 | 0.00 | 0.00 | 0.00 | 63 | 1027.8 |
| 20260502064005 | 11 | 238 | 0.0 | 6.4 | 0.00 | 0.00 | 0.00 | 63 | 1027.8 |
| 20260502063504 | 11 | 288 | 3.2 | 8.0 | 0.00 | 0.00 | 0.00 | 64 | 1027.8 |
| 20260502063005 | 10 | 310 | 6.4 | 8.0 | 0.00 | 0.00 | 0.00 | 65 | 1027.8 |
| 20260502062505 | 10 | 332 | 1.6 | 4.8 | 0.00 | 0.00 | 0.00 | 65 | 1027.8 |
| 20260502061505 | 9 | 142 | 3.2 | 4.8 | 0.00 | 0.00 | 0.00 | 71 | 1027.8 |
| 20260502061005 | 9 | 176 | 0.0 | 4.8 | 0.00 | 0.00 | 0.00 | 72 | 1027.8 |
| 20260502060504 | 8 | 265 | 3.2 | 4.8 | 0.00 | 0.00 | 0.00 | 73 | 1027.8 |
| 20260502060005 | 8 | 358 | 3.2 | 4.8 | 0.00 | 0.00 | 0.00 | 74 | 1027.8 |
| 20260502055504 | 8 | 64 | 0.0 | 4.8 | 0.00 | 0.00 | 0.00 | 74 | 1027.8 |
| 20260502055005 | 7 | 115 | 3.2 | 4.8 | 0.00 | 0.00 | 0.00 | 76 | 1027.8 |
| 20260502054505 | 7 | 134 | 1.6 | 4.8 | 0.00 | 0.00 | 0.00 | 78 | 1027.8 |
| 20260502054005 | 7 | 114 | 1.6 | 4.8 | 0.00 | 0.00 | 0.00 | 79 | 1027.8 |
| 20260502053505 | 6 | 126 | 0.0 | 3.2 | 0.00 | 0.00 | 0.00 | 80 | 1027.8 |
| 20260502053005 | 6 | 134 | 1.6 | 3.2 | 0.00 | 0.00 | 0.00 | 80 | 1027.8 |
| 20260502052505 | 6 | 134 | 1.6 | 3.2 | 0.00 | 0.00 | 0.00 | 79 | 1027.8 |
| 20260502051505 | 5 | 143 | 3.2 | 3.2 | 0.00 | 0.00 | 0.00 | 79 | 1027.8 |
| 20260502050505 | 5 | 198 | 0.0 | 3.2 | 0.00 | 0.00 | 0.00 | 76 | 1026.8 |
| 20260502050005 | 5 | 0 | 0.0 | 0.0 | 0.00 | 0.00 | 0.00 | 76 | 1026.8 |
| 20260502045505 | 5 | 0 | 0.0 | 0.0 | 0.00 | 0.00 | 0.00 | 74 | 1027.8 |
| 20260502045005 | 5 | 0 | 0.0 | 0.0 | 0.00 | 0.00 | 0.00 | 75 | 1027.8 |
| 20260502044505 | 5 | 181 | 0.0 | 3.2 | 0.00 | 0.00 | 0.00 | 74 | 1027.8 |
| 20260502044005 | 5 | 181 | 0.0 | 3.2 | 0.00 | 0.00 | 0.00 | 74 | 1027.8 |
| 20260502043504 | 5 | 0 | 0.0 | 0.0 | 0.00 | 0.00 | 0.00 | 74 | 1027.8 |
| 20260502043005 | 5 | 207 | 0.0 | 3.2 | 0.00 | 0.00 | 0.00 | 73 | 1027.8 |
| 20260502042504 | 5 | 197 | 1.6 | 3.2 | 0.00 | 0.00 | 0.00 | 73 | 1027.8 |
| 20260502042004 | 5 | 85 | 1.6 | 3.2 | 0.00 | 0.00 | 0.00 | 73 | 1027.8 |
| 20260502041505 | 5 | 1 | 0.0 | 3.2 | 0.00 | 0.00 | 0.00 | 72 | 1027.8 |
| 20260502041004 | 5 | 0 | 0.0 | 0.0 | 0.00 | 0.00 | 0.00 | 72 | 1027.8 |
| 20260502040505 | 5 | 0 | 0.0 | 0.0 | 0.00 | 0.00 | 0.00 | 72 | 1027.8 |
| 20260502035505 | 5 | 0 | 0.0 | 0.0 | 0.00 | 0.00 | 0.00 | 72 | 1027.8 |
| 20260502035005 | 5 | 0 | 0.0 | 0.0 | 0.00 | 0.00 | 0.00 | 71 | 1027.8 |
| 20260502034505 | 5 | 0 | 0.0 | 0.0 | 0.00 | 0.00 | 0.00 | 72 | 1027.8 |
| 20260502034005 | 5 | 0 | 0.0 | 0.0 | 0.00 | 0.00 | 0.00 | 71 | 1027.8 |
| 20260502033504 | 5 | 314 | 0.0 | 3.2 | 0.00 | 0.00 | 0.00 | 72 | 1027.8 |
| 20260502033005 | 5 | 269 | 0.0 | 3.2 | 0.00 | 0.00 | 0.00 | 72 | 1027.8 |
| 20260502032505 | 5 | 264 | 1.6 | 3.2 | 0.00 | 0.00 | 0.00 | 71 | 1027.8 |
| 20260502032005 | 5 | 357 | 1.6 | 3.2 | 0.00 | 0.00 | 0.00 | 70 | 1027.8 |
| 20260502031505 | 5 | 7 | 0.0 | 3.2 | 0.00 | 0.00 | 0.00 | 70 | 1027.8 |
| 20260502031005 | 5 | 0 | 0.0 | 0.0 | 0.00 | 0.00 | 0.00 | 70 | 1027.8 |
| 20260502030505 | 5 | 292 | 0.0 | 3.2 | 0.00 | 0.00 | 0.00 | 70 | 1027.8 |
| 20260502025504 | 5 | 306 | 3.2 | 3.2 | 0.00 | 0.00 | 0.00 | 69 | 1026.8 |
| 20260502025005 | 5 | 302 | 1.6 | 3.2 | 0.00 | 0.00 | 0.00 | 68 | 1026.8 |
| 20260502024505 | 5 | 112 | 0.0 | 3.2 | 0.00 | 0.00 | 0.00 | 68 | 1026.8 |
| 20260502024005 | 5 | 112 | 1.6 | 3.2 | 0.00 | 0.00 | 0.00 | 70 | 1027.8 |
| 20260502023505 | 5 | 111 | 0.0 | 3.2 | 0.00 | 0.00 | 0.00 | 69 | 1027.8 |
| 20260502023004 | 5 | 111 | 0.0 | 3.2 | 0.00 | 0.00 | 0.00 | 69 | 1027.8 |
| 20260502022505 | 5 | 112 | 0.0 | 3.2 | 0.00 | 0.00 | 0.00 | 69 | 1027.8 |
| 20260502022005 | 5 | 0 | 0.0 | 0.0 | 0.00 | 0.00 | 0.00 | 69 | 1027.8 |
| 20260502021505 | 5 | 98 | 0.0 | 3.2 | 0.00 | 0.00 | 0.00 | 68 | 1027.8 |
| 20260502021004 | 5 | 89 | 0.0 | 3.2 | 0.00 | 0.00 | 0.00 | 69 | 1027.8 |
| 20260502020505 | 5 | 68 | 1.6 | 3.2 | 0.00 | 0.00 | 0.00 | 69 | 1027.8 |
| 20260502015004 | 5 | 0 | 0.0 | 0.0 | 0.00 | 0.00 | 0.00 | 68 | 1027.8 |
| 20260502014505 | 5 | 0 | 0.0 | 0.0 | 0.00 | 0.00 | 0.00 | 68 | 1027.8 |
| 20260502014004 | 5 | 0 | 0.0 | 0.0 | 0.00 | 0.00 | 0.00 | 69 | 1027.8 |
| 20260502013504 | 5 | 0 | 0.0 | 0.0 | 0.00 | 0.00 | 0.00 | 68 | 1027.8 |
| 20260502012505 | 5 | 0 | 0.0 | 0.0 | 0.00 | 0.00 | 0.00 | 66 | 1027.8 |
| 20260502012004 | 5 | 135 | 0.0 | 3.2 | 0.00 | 0.00 | 0.00 | 67 | 1027.8 |
| 20260502011505 | 5 | 135 | 0.0 | 3.2 | 0.00 | 0.00 | 0.00 | 67 | 1027.8 |
| 20260502011004 | 5 | 0 | 0.0 | 0.0 | 0.00 | 0.00 | 0.00 | 67 | 1027.8 |
| 20260502010505 | 5 | 0 | 0.0 | 0.0 | 0.00 | 0.00 | 0.00 | 65 | 1027.8 |
| 20260502010004 | 5 | 135 | 0.0 | 1.6 | 0.00 | 0.00 | 0.00 | 65 | 1027.8 |
| 20260502005505 | 5 | 135 | 0.0 | 3.2 | 0.00 | 0.00 | 0.00 | 65 | 1028.8 |
| 20260502005005 | 6 | 149 | 0.0 | 3.2 | 0.00 | 0.00 | 0.00 | 65 | 1028.8 |
| 20260502004505 | 6 | 154 | 1.6 | 3.2 | 0.00 | 0.00 | 0.00 | 65 | 1028.8 |
| 20260502004005 | 6 | 314 | 0.0 | 3.2 | 0.00 | 0.00 | 0.00 | 65 | 1028.8 |
| 20260502003505 | 6 | 314 | 0.0 | 3.2 | 0.00 | 0.00 | 0.00 | 63 | 1028.8 |
| 20260502003005 | 6 | 90 | 0.0 | 3.2 | 0.00 | 0.00 | 0.00 | 64 | 1028.8 |
| 20260502002504 | 6 | 90 | 1.6 | 3.2 | 0.00 | 0.00 | 0.00 | 64 | 1028.8 |
| 20260502002005 | 6 | 0 | 0.0 | 0.0 | 0.00 | 0.00 | 0.00 | 63 | 1028.8 |
| 20260502000505 | 6 | 107 | 1.6 | 3.2 | 0.00 | 0.00 | 0.00 | 63 | 1028.8 |
| 20260502000005 | 6 | 112 | 0.0 | 3.2 | 0.00 | 0.00 | 0.00 | 62 | 1028.8 |
| 20260501235505 | 6 | 46 | 0.0 | 3.2 | 0.00 | 0.00 | 0.00 | 62 | 1028.8 |
| 20260501235005 | 6 | 46 | 0.0 | 3.2 | 0.00 | 0.00 | 0.00 | 62 | 1028.8 |
| 20260501234505 | 6 | 71 | 0.0 | 3.2 | 0.00 | 0.00 | 0.00 | 61 | 1028.8 |
| 20260501234005 | 6 | 52 | 0.0 | 3.2 | 0.00 | 0.00 | 0.00 | 61 | 1028.8 |
| 20260501233504 | 6 | 76 | 0.0 | 3.2 | 0.00 | 0.00 | 0.00 | 61 | 1028.8 |
| 20260501233005 | 6 | 125 | 0.0 | 3.2 | 0.00 | 0.00 | 0.00 | 60 | 1028.8 |
| 20260501232505 | 6 | 110 | 3.2 | 6.4 | 0.00 | 0.00 | 0.00 | 61 | 1027.8 |